#timestamp,LO_Frequency,Hit,StdDev 
1523696415.6,286047000.5,N
1523696435.4,286046999.8,N
1523696455.2,286047000.4,N
1523696475.1,286047001.5,N
1523696476.0,286047001.5,N
1523696495.8,286047002.6,N
1523696515.6,286047000.1,N
1523696535.5,286047002.8,N
1523696555.3,286047000.3,N
1523696575.2,286047000.0,N
1523696595.0,286046999.8,N
1523696595.9,286046999.8,N
1523696615.8,286047001.2,N
1523696635.6,286046998.2,N
1523696655.4,286046999.7,N
1523696675.3,286047000.9,N
1523696695.1,286047001.0,N
1523696715.8,286047000.5,N
1523696735.7,286046999.8,N
1523696755.5,286047000.9,N
1523696775.4,286046998.9,N
1523696795.2,286046998.7,N
1523696815.0,286046999.6,N
1523696815.9,286046999.6,N
1523696835.8,286046998.8,N
1523696855.6,286047000.9,N
1523696875.4,286047000.5,N
1523696895.3,286046999.4,N
1523696915.1,286046996.6,Y
1523696935.9,286046999.2,P
1523696955.7,286047001.2,N
1523696975.5,286047001.2,N
1523696995.4,286047000.6,N
1523697015.2,286047002.8,Y
1523697035.1,286047000.4,P
1523697036.0,286047000.4,P
1523697055.8,286047000.8,P
1523697075.6,286047000.7,Y
1523697095.5,286047001.1,P
1523697115.3,286046998.2,P
1523697135.2,286046999.1,N
1523697155.9,286046998.3,N
1523697175.7,286046999.5,N
1523697195.6,286046997.1,N
1523697215.4,286046999.6,N
1523697235.2,286046999.1,N
1523697255.1,286046999.0,N
1523697256.0,286046999.0,N
1523697275.8,286046998.8,N
1523697295.7,286046998.3,N
1523697315.5,286046998.7,N
1523697335.3,286046999.5,N
1523697355.2,286046997.9,N
1523697375.0,286046995.2,Y
1523697375.9,286046995.2,P
1523697395.7,286046996.7,N
1523697415.6,286046997.1,N
1523697435.4,286046999.6,N
1523697455.3,286046998.9,N
1523697475.1,286046998.3,N
1523697476.0,286046998.3,N
1523697495.8,286047001.1,N
1523697515.7,286046998.7,N
1523697535.5,286046998.5,N
1523697555.3,286047000.1,N
1523697575.2,286047000.9,N
1523697595.0,286046999.9,N
1523697595.9,286046999.9,N
1523697615.8,286047000.2,N
1523697635.6,286047000.2,N
1523697655.4,286047000.2,N
1523697675.3,286047001.5,N
1523697695.1,286047000.4,N
1523697715.9,286047000.0,N
1523697735.7,286047000.0,N
1523697755.5,286047002.4,N
1523697775.4,286047002.1,N
1523697795.2,286047000.9,N
1523697815.0,286047000.9,N
1523697815.9,286047000.9,N
1523697835.8,286047001.0,N
1523697855.6,286047000.4,N
1523697875.5,286047000.2,N
1523697895.3,286047000.5,N
1523697915.1,286047002.6,N
1523697935.9,286047000.2,N
1523697955.7,286047001.0,N
1523697975.6,286047001.1,N
1523697995.4,286047001.0,N
1523698015.2,286047002.7,N
1523698035.1,286047002.3,N
1523698036.0,286047002.3,N
1523698055.8,286047000.9,N
1523698075.6,286046998.1,N
1523698095.5,286046998.3,N
1523698115.3,286046998.3,N
1523698135.2,286046998.3,N
1523698155.9,286046999.2,N
1523698175.7,286046999.0,N
1523698195.6,286046996.5,N
1523698215.4,286046998.5,N
1523698235.2,286046998.8,N
1523698255.1,286046999.4,N
1523698256.0,286046999.4,N
1523698275.8,286046998.6,N
1523698295.7,286047000.6,N
1523698315.5,286047000.8,N
1523698335.3,286046998.7,N
1523698355.2,286046998.7,N
1523698375.0,286047000.9,N
1523698375.9,286047000.9,N
1523698395.8,286047000.7,N
1523698415.6,286047002.7,N
1523698435.4,286047002.5,N
1523698455.3,286047002.4,N
1523698475.1,286047002.7,N
1523698495.8,286047002.4,N
1523698515.7,286047002.7,N
1523698535.5,286047002.5,N
1523698555.3,286047001.6,N
1523698575.2,286047002.1,N
1523698595.0,286047002.8,N
1523698595.9,286047002.8,N
1523698615.8,286047004.3,N
1523698635.6,286047001.3,N
1523698655.5,286047001.5,N
1523698675.3,286047001.4,N
1523698695.2,286047001.3,N
1523698715.0,286047002.2,N
1523698715.9,286047002.2,N
1523698735.8,286047002.4,N
1523698755.6,286047001.7,N
1523698775.4,286047002.5,N
1523698795.3,286047002.1,N
1523698815.1,286047001.4,N
1523698835.9,286047000.0,N
1523698855.7,286046998.5,N
1523698875.5,286046998.6,N
1523698895.4,286046998.2,N
1523698915.2,286046998.8,N
1523698935.0,286047000.0,N
1523698935.9,286047000.0,N
1523698955.8,286047000.3,N
1523698975.6,286046999.9,N
1523698995.5,286047002.3,N
1523699015.3,286046999.7,N
1523699035.1,286047002.2,N
1523699055.9,286047000.5,N
1523699075.7,286047000.0,N
1523699095.5,286046999.8,N
1523699115.4,286047002.8,N
1523699135.2,286047001.9,N
1523699155.1,286047001.5,N
1523699156.0,286047001.5,N
1523699175.8,286047002.6,N
1523699195.6,286047002.3,N
1523699215.5,286047002.5,N
1523699235.3,286047002.8,N
1523699255.1,286046999.7,N
1523699275.9,286047004.3,Y
1523699295.7,286047002.1,P
1523699315.6,286047000.8,N
1523699335.4,286047000.9,N
1523699355.2,286046997.2,Y
1523699375.1,286046997.3,P
1523699376.0,286046997.3,N
1523699395.8,286046999.3,N
1523699415.7,286047001.0,N
1523699435.5,286047000.8,N
1523699455.3,286046999.6,N
1523699475.2,286046999.3,N
1523699495.0,286047000.8,N
1523699495.9,286047000.8,N
1523699515.8,286047001.1,N
1523699535.6,286046998.4,N
1523699555.4,286046998.5,N
1523699575.3,286046996.6,N
1523699595.1,286046996.5,N
1523699596.0,286046996.5,N
1523699615.8,286046997.7,N
1523699635.7,286046996.5,N
1523699655.5,286046998.9,N
1523699675.4,286046998.4,N
1523699695.2,286047002.7,N
1523699715.0,286046999.8,N
1523699715.9,286046999.8,N
1523699735.8,286046998.7,N
1523699755.6,286046998.6,N
1523699775.4,286046998.2,N
1523699795.3,286046998.3,N
1523699815.1,286047001.2,N
1523699835.9,286046999.0,N
1523699855.7,286046998.3,N
1523699875.5,286046998.6,N
1523699895.4,286047000.7,N
1523699915.2,286046998.5,N
1523699935.0,286046998.2,N
1523699936.0,286046998.2,N
1523699955.8,286047000.7,N
1523699975.6,286047000.5,N
1523699995.5,286047000.8,N
